Location: San Vito
(41.8833°N, 12.9833°E)
Time: 19:25:12
(UTC+00:00)

Cosmos 839 Rocket - Pass Details

Date: 17 November 2019
Orbit: 968 x 2084 km, 65.9° (Epoch: 05 December)

Event Time Altitude Azimuth Distance (km) Brightness Sun altitude
Exits shadow 03:17:30 79° 320° (NW) 1,100 4.0 -30.1°
Drops below altitude 10° 03:23:41 10° 30° (NNE) 2,757 6.7 -28.9°
Sets 03:26:07 0° 31° (NNE) 3,677 7.4 -28.5°
